Location: Robert Ferguson Observatory
(38.4385°N, 122.5078°W)
Time: 01:18:40
(UTC-07:00)

Daily predictions for brighter satellites

Satellite Brightness Start Highest point End
(mag) Time Altitude Azimuth Time Altitude Azimuth Time Altitude Azimuth
Cosmos 1953 4.2 00:01:28 10° N 00:03:30 25° NNE 00:03:30 25° NNE
COSMOS 2428 3.6 00:01:34 10° NW 00:06:36 36° WSW 00:06:36 36° WSW
SL-16 R/B 3.4 00:02:58 10° N 00:07:56 30° ENE 00:08:36 29° ENE
Cosmos 489 Rocket 4.4 00:08:08 10° NNW 00:14:31 82° WSW 00:14:41 81° SW
NOSS 0 Rocket 3.9 00:08:34 10° NNW 00:14:46 71° WSW 00:14:46 71° WSW
Cosmos 1980 3.7 00:11:57 10° NNW 00:17:10 75° NW 00:17:10 75° NW
SL-19 R/B 4.3 00:11:38 10° NNE 00:17:41 85° ENE 00:17:41 85° ENE
Cosmos 2279 Rocket 4.3 00:19:19 53° WSW 00:20:02 56° W 00:26:09 10° N
Cosmos 1538 Rocket 4.5 00:20:39 54° WNW 00:20:39 54° WNW 00:25:38 10° N
Cosmos 1655 Rocket 4.0 00:16:20 10° NNW 00:22:39 67° W 00:22:56 67° WSW
Cosmos 2297 Rocket 2.3 00:23:15 74° NW 00:23:15 74° NW 00:28:38 10° NNE
CZ-4 R/B 4.4 00:20:33 10° N 00:24:47 60° NNW 00:24:47 60° NNW
Cosmos 2227 Rocket 2.4 00:26:26 63° WNW 00:26:27 63° WNW 00:32:06 10° NNE
Cosmos 1680 Rocket 4.4 00:29:45 41° NE 00:29:45 41° NE 00:33:23 10° NNE
ADEOS Rocket 3.2 00:29:13 10° NNE 00:33:42 51° ENE 00:33:42 51° ENE
Cosmos 2237 Rocket 2.5 00:29:46 10° NNW 00:34:40 59° WNW 00:34:40 59° WNW
H-2A R/B 3.4 00:41:10 36° NNE 00:41:10 36° NNE 00:43:52 10° N
Cosmos 2082 3.9 00:40:29 65° NW 00:40:29 65° NW 00:46:01 10° NNE
CZ-4B R/B 4.0 00:36:26 10° NNE 00:40:27 55° NNE 00:40:27 55° NNE
Mayak 0.3 00:38:20 10° N 00:40:52 35° N 00:40:52 35° N
USA 229 DEB 3.7 01:01:06 66° E 01:01:06 66° E 01:07:27 10° NE
USA 229 3.7 01:01:13 66° E 01:01:13 66° E 01:07:33 10° NE
Cosmos 2266 Rocket 4.2 00:56:01 10° NNW 01:02:11 64° W 01:02:11 64° W
COSMOS 2455 4.3 01:17:02 25° W 01:19:00 30° NW 01:24:14 10° N
CZ-4C R/B 4.5 01:14:12 10° WNW 01:18:50 20° W 01:18:50 20° W
Cosmos 1238 Rocket 4.4 01:23:19 38° N 01:23:19 38° N 01:25:52 10° N
Meteor 1-24 Rocket 3.8 01:39:50 76° N 01:39:50 76° N 01:45:16 10° N
Cosmos 1417 Rocket 4.4 01:39:33 89° WNW 01:39:33 89° WNW 01:45:57 10° N
BREEZE-M DEB (TANK) 4.1 01:19:24 10° NW 01:42:17 68° SW 01:43:00 65° SSW
Meteor 2-5 Rocket 4.4 01:47:09 47° WNW 01:47:09 47° WNW 01:52:39 10° N
Cosmos 2263 Rocket 2.9 01:48:02 43° E 01:48:02 43° E 01:52:48 10° NE
Cosmos 1943 4.3 01:45:15 10° N 01:50:34 39° ENE 01:52:03 33° E
Cosmos 1726 4.4 01:47:41 10° N 01:49:24 23° NNE 01:49:24 23° NNE
SL-16 R/B 3.4 01:46:54 10° NW 01:50:27 31° WNW 01:50:27 31° WNW
GEOS 3 Rocket 4.4 01:50:38 10° NE 01:54:47 43° E 01:54:47 43° E
Cosmos 1745 Rocket 3.9 01:49:59 10° N 01:56:22 78° E 01:56:46 75° ESE
Cosmos 158 Rocket 4.3 02:02:47 61° ENE 02:02:47 61° ENE 02:07:35 10° NNE
Cosmos 1452 Rocket 4.1 01:59:10 10° N 02:04:18 49° ENE 02:04:41 48° E
Cosmos 2056 Rocket 4.3 02:01:28 10° NNW 02:05:04 42° NW 02:05:04 42° NW
S3M 4.0 02:10:34 65° W 02:10:43 65° W 02:16:57 10° N
CZ-4B R/B 3.6 02:22:48 26° NNE 02:22:48 26° NNE 02:24:30 10° N
Cosmos 1603 3.9 02:18:12 10° NNW 02:23:06 59° WNW 02:23:06 59° WNW
Cosmos 1386 Rocket 4.3 02:19:20 10° N 02:25:40 76° W 02:26:05 72° SW
SL-24 R/B - RUBIN 2 4.3 02:28:39 53° E 02:28:39 53° E 02:33:03 10° NE
Cosmos 1626 3.9 02:31:42 28° ENE 02:31:42 28° ENE 02:34:08 10° NNE
Meteor 2-13 Rocket 4.3 02:25:10 10° NNW 02:31:11 68° W 02:31:23 67° WSW
NOSS 3-1 (C) 3.8 02:30:57 44° W 02:31:56 49° NW 02:38:04 10° NNE
Cosmos 1420 Rocket 3.9 02:27:30 10° NNW 02:32:44 77° ENE 02:32:50 77° E
Cosmos 1709 Rocket 4.0 02:26:52 10° N 02:33:15 76° E 02:34:38 56° SSE
Cosmos 1076 Rocket 4.4 02:36:13 45° ENE 02:36:13 45° ENE 02:40:00 10° NNE
Cosmos 2285 Rocket 3.9 02:41:12 66° SSW 02:42:13 90° WNW 02:48:37 10° NNE
BREEZE-M DEB (TANK) 3.3 02:43:19 64° NE 02:43:19 64° NE 02:46:16 10° NE
Spot 2 4.4 02:38:17 10° N 02:43:11 70° WNW 02:43:11 70° WNW
CBERS-1 4.3 02:41:17 10° NNE 02:46:20 56° E 02:46:52 53° SE
Genesis I 4.0 02:48:46 50° N 02:48:46 50° N 02:51:53 10° NNE
Cosmos 1340 4.0 02:46:28 10° NNW 02:48:43 34° NNW 02:48:43 34° NNW
SL-08 R/B 4.1 02:49:43 35° ESE 02:51:19 49° ENE 02:56:03 10° N
CZ-2D R/B 2.7 02:46:26 10° NNE 02:51:28 47° E 02:52:27 42° SE
Cosmos 2221 2.7 02:47:32 10° N 02:51:24 68° NNW 02:51:24 68° NNW
NOSS 3-1 (A) 3.8 02:51:30 43° W 02:52:46 50° NW 02:58:59 10° NNE
NOSS 2-3 (C) 3.9 02:55:17 61° ESE 02:55:17 61° ESE 03:00:18 10° NE
IRS-1D 4.4 02:51:28 10° NNE 02:56:33 43° E 02:57:57 36° SE
ARIANE 5 R/B 3.7 02:55:52 10° NNE 03:00:27 33° E 03:02:04 27° SE
USA 267 3.5 02:56:16 10° NE 03:02:41 56° SE 03:04:26 44° S
IRS-P3 Rocket 4.5 03:01:14 10° NNE 03:06:32 87° ESE 03:07:26 63° S
Resurs 1-4 Rocket 2.1 03:04:15 10° NNE 03:09:34 74° ESE 03:10:49 52° S
OAO 2 Rocket 3.6 03:11:54 49° SE 03:11:54 49° SE 03:16:07 10° E
Cosmos 1844 Rocket 3.3 03:10:41 37° SSE 03:12:24 48° ESE 03:17:51 10° NE
Meteor 2-19 Rocket 4.3 03:07:41 10° N 03:13:47 81° W 03:15:45 45° S
IRS-P3 4.1 03:12:24 10° N 03:17:43 74° WNW 03:18:51 55° SW
Cosmos 1703 3.4 03:18:10 64° ESE 03:18:22 65° E 03:22:18 10° NNE
MOZ.5/SAFIR/RUBIN 5/SL-8 4.3 03:16:21 28° SE 03:18:40 57° ENE 03:23:19 10° N
DELTA 2 R/B (1) 3.4 03:17:21 26° W 03:20:34 79° SSW 03:26:10 10° ESE
NPP 3.7 03:15:33 10° N 03:20:52 62° WNW 03:22:02 49° WSW
Cosmos 1766 Rocket 3.4 03:22:21 67° SSE 03:22:54 81° E 03:27:17 10° N
Cosmos 2278 Rocket 4.4 03:19:42 10° SE 03:23:23 18° E 03:27:04 10° ENE
Cosmos 921 Rocket 2.9 03:21:23 10° NNW 03:25:42 85° ENE 03:26:38 55° SSE
Cosmos 1844 4.3 03:26:06 31° SSE 03:28:24 50° ESE 03:33:51 10° NNE
ADEOS II 4.0 03:24:52 10° NE 03:29:02 24° E 03:33:11 10° SSE
Cosmos 2263 Rocket 3.6 03:29:43 22° W 03:31:30 25° WNW 03:36:11 10° N
UNKNOWN OBJECT B 4.3 03:29:21 10° NE 03:32:39 29° E 03:34:05 22° SE
SL-16 R/B 2.5 03:31:01 35° S 03:33:40 66° WSW 03:39:51 10° NNW
Cosmos 1943 4.3 03:29:40 10° NW 03:33:49 27° W 03:33:49 27° W
Cosmos 1455 2.2 03:33:47 10° N 03:37:33 75° E 03:38:18 54° SSE
Cosmos 1331 Rocket 4.1 03:32:56 10° NNW 03:38:06 75° ENE 03:42:24 15° SSE
H-2A R/B 3.0 03:35:03 10° N 03:39:20 47° WNW 03:39:58 43° W
Meteor 1-11 4.2 03:38:50 40° SSW 03:40:50 71° W 03:46:28 10° N
BREEZE-M DEB (TANK) 4.0 03:30:15 10° WNW 03:44:24 89° SW 03:48:14 10° SE
NOSS 2-3 (D) 4.3 03:45:26 35° W 03:46:54 48° NW 03:51:59 10° NNE
Helios 1A Rocket 3.5 03:43:54 10° NNE 03:47:53 51° E 03:49:40 29° SSE
Cosmos 2058 2.8 03:47:11 44° S 03:48:28 89° ESE 03:52:43 10° N
Cosmos 1408 Rocket 3.6 03:48:36 47° SW 03:49:33 60° W 03:53:52 10° N
Cosmos 1809 Rocket 4.4 03:45:22 10° N 03:51:29 90° W 03:56:20 17° S
Cosmos 2251 Rocket 3.7 03:48:51 30° S 03:51:33 72° ESE 03:56:55 10° NNE
Meteor 2-2 Rocket 4.4 03:47:41 10° NNW 03:53:19 55° W 03:55:53 30° SSW
Cosmos 1151 Rocket 3.7 03:49:04 10° N 03:53:22 54° E 03:57:09 13° SSE
COSMOS 2406 3.9 03:51:29 10° NNW 03:57:11 56° ENE 04:02:50 10° SE
BREEZE-M DEB (TANK) 4.5 03:54:27 24° SSW 03:58:24 39° SSE 04:01:34 10° ENE
Geosat 4.0 03:53:43 10° NNE 03:58:43 68° WNW 04:01:01 32° SW
SAR-Lupe-2 3.5 03:57:15 31° SSE 03:58:52 84° E 04:02:28 10° NNW
CRYOSAT 2 4.3 03:58:17 29° S 04:00:44 68° W 04:05:38 10° N
ADEOS 3.7 03:55:32 10° NNE 04:00:46 70° ESE 04:04:18 21° S
CZ-2D R/B 3.7 03:57:38 10° NNE 04:02:06 77° ESE 04:04:33 26° S
Cosmos 1626 4.3 04:06:19 14° WNW 04:06:19 14° WNW 04:08:09 10° NW
Timation 1 Rocket 4.3 04:02:58 28° SSW 04:06:15 77° WNW 04:12:14 10° NNE
BREEZE-M TANK 2.3 04:05:20 32° SW 04:07:01 69° SSE 04:09:42 10° ENE
NOSS 8 (A) 4.4 04:11:28 41° WSW 04:12:19 58° NW 04:15:27 10° NNE
SeaSat 1 2.7 04:10:45 19° S 04:14:00 45° WSW 04:18:44 10° NW
ATLAS 2AS CENTAUR R/B 3.1 04:09:58 21° SSW 04:15:36 79° ESE 04:23:46 10° NE
Nadezhda 1 Rocket 4.3 04:14:35 24° SW 04:18:11 49° W 04:24:17 10° N
Cosmos 1607 4.3 04:14:26 10° NW 04:20:21 41° WSW 04:26:08 10° S
Cosmos 1743 Rocket 3.7 04:18:38 26° SSW 04:20:50 56° W 04:25:05 10° N
Cosmos 2151 3.4 04:20:38 26° SW 04:22:35 44° W 04:26:44 10° N
Cosmos 2154 Rocket 4.1 04:21:16 10° NNW 04:27:27 61° W 04:33:39 10° S
Centaur D AC-28 4.0 04:01:24 10° W 04:29:03 45° SSW 04:34:31 10° SE
Cosmos 405 Rocket 2.6 04:25:56 10° N 04:29:46 87° W 04:33:30 10° S
CZ-2D R/B 3.7 04:27:26 10° NNW 04:31:09 20° WNW 04:33:47 14° W
Cosmos 1805 Rocket 4.3 04:31:01 10° S 04:35:13 52° E 04:39:26 10° NNE
ARIANE 5 R/B 3.7 04:35:13 10° NNW 04:39:24 26° WNW 04:42:24 15° WSW
Cosmos 1295 Rocket 4.4 04:34:53 10° N 04:40:57 73° W 04:47:04 10° S
USA 267 4.0 04:39:25 10° NE 04:45:32 44° NNW 04:51:38 10° WSW
CZ-4B R/B 4.4 04:43:06 10° NE 04:46:21 31° E 04:49:37 10° SSE
BREEZE M DEB (TANK) 3.9 04:40:54 10° W 04:46:36 29° NW 04:49:07 10° NNE
Meteor 2-10 Rocket 3.5 04:42:45 10° NNW 04:47:43 59° W 04:52:36 10° S
Resurs 1-4 Rocket 4.1 04:46:04 10° NNW 04:48:44 14° WNW 04:51:24 10° W
Cosmos 1441 Rocket 4.0 04:49:12 10° NNW 04:52:49 34° W 04:56:21 10° SSW
Cosmos 2218 Rocket 4.1 04:47:51 10° N 04:54:03 79° E 05:00:11 10° S
In-Cosmos 22 Rocket 4.2 04:48:41 10° S 04:54:09 86° E 04:59:31 10° N
OAO 2 Rocket 3.4 04:50:57 10° W 04:55:49 55° S 05:00:37 10° ESE
SL-19 R/B 4.1 04:53:04 10° S 04:55:51 37° WSW 04:58:31 10° NNW
Cosmos 1844 Rocket 4.1 04:52:21 11° WSW 04:56:32 24° NW 05:01:04 10° N
Cosmos 1707 Rocket 4.4 04:53:08 10° N 04:57:32 55° E 05:01:54 10° SSE
ATLAS 3B R/B 3.3 04:51:27 10° NNW 04:58:00 59° NE 05:04:26 10° SE
Cosmos 1892 3.0 04:59:34 10° S 05:03:24 71° E 05:07:15 10° NNE
DELTA 2 R/B (1) 4.3 05:01:45 10° W 05:06:38 31° SSW 05:11:30 10° SSE
Cosmos 2278 Rocket 2.4 05:01:21 10° SW 05:06:54 57° WNW 05:12:31 10° NNE
ADEOS II 2.7 05:03:58 10° N 05:08:50 39° WNW 05:13:41 10° SW
Cosmos 1833 Rocket 3.5 05:10:05 10° NNW 05:15:38 58° ENE 05:21:08 10° SE
Cosmos 2297 4.1 05:11:21 10° S 05:16:54 65° ESE 05:22:30 10° NNE
USA 234 3.6 05:11:14 10° SE 05:17:43 76° NE 05:24:15 10° NW
Cosmos 1666 Rocket 3.6 05:17:23 10° SSW 05:21:50 76° W 05:26:17 10° N
Cosmos 1633 Rocket 3.1 05:17:32 10° S 05:21:53 87° E 05:26:16 10° N
Fregat R/B Cluster 11 3.4 05:19:20 10° SSW 05:22:29 80° WNW 05:25:41 10° NNE
Lacrosse 5 2.7 05:19:51 10° SSW 05:24:43 49° SE 05:29:36 10° NE
GP-B 4.4 05:21:18 10° NNW 05:24:51 24° W 05:28:23 10° SW
MOS 1-B 4.4 05:21:22 10° N 05:27:11 78° WNW 05:32:58 10° SSW
